| time (UTC) | temp F | wind direction | speed MPH | gust MPH | rain 1hr in | rain 24hr in | rain mn in | humidity % | barometer mb |
| 20260504043359 | 40 | 191 | 0.0 | 1.0 | 0.00 | 0.00 | 0.00 | 93 | 1008.4 |
| 20260504040358 | 40 | 228 | 0.0 | 1.0 | 0.00 | 0.00 | 0.00 | 93 | 1008.4 |
| 20260504033358 | 40 | 207 | 0.0 | 1.0 | 0.00 | 0.00 | 0.00 | 92 | 1008.5 |
| 20260504030358 | 41 | 208 | 0.0 | 1.0 | 0.00 | 0.00 | 0.00 | 92 | 1008.5 |
| 20260504023358 | 42 | 159 | 0.0 | 1.0 | 0.00 | 0.00 | 0.00 | 92 | 1008.1 |
| 20260504020358 | 43 | 190 | 0.0 | 0.0 | 0.00 | 0.00 | 0.00 | 91 | 1007.8 |
| 20260504013358 | 45 | 203 | 0.0 | 0.0 | 0.00 | 0.00 | 0.00 | 91 | 1008.0 |
| 20260504010358 | 46 | 169 | 0.0 | 0.0 | 0.00 | 0.00 | 0.00 | 89 | 1007.9 |
| 20260504003359 | 47 | 139 | 0.0 | 0.0 | 0.00 | 0.00 | 0.00 | 88 | 1007.8 |
| 20260504000358 | 47 | 145 | 0.0 | 0.0 | 0.00 | 0.00 | 0.00 | 89 | 1007.9 |
| 20260503233358 | 48 | 162 | 0.0 | 0.0 | 0.00 | 0.00 | 0.00 | 86 | 1008.3 |
| 20260503230401 | 49 | 153 | 0.0 | 0.0 | 0.00 | 0.00 | 0.00 | 84 | 1008.4 |
| 20260503223358 | 50 | 166 | 0.0 | 0.0 | 0.00 | 0.00 | 0.00 | 81 | 1008.4 |
| 20260503220401 | 52 | 103 | 0.0 | 0.0 | 0.00 | 0.00 | 0.00 | 77 | 1008.5 |
| 20260503213358 | 52 | 124 | 0.0 | 0.0 | 0.00 | 0.00 | 0.00 | 75 | 1008.7 |
| 20260503210358 | 52 | 156 | 0.0 | 0.0 | 0.00 | 0.00 | 0.00 | 75 | 1008.3 |
| 20260503203358 | 54 | 141 | 0.0 | 0.0 | 0.00 | 0.00 | 0.00 | 72 | 1008.3 |
| 20260503200358 | 53 | 174 | 0.0 | 2.0 | 0.00 | 0.00 | 0.00 | 73 | 1008.4 |
| 20260503193358 | 55 | 155 | 0.0 | 1.0 | 0.00 | 0.00 | 0.00 | 70 | 1008.7 |
| 20260503190401 | 59 | 188 | 0.0 | 1.0 | 0.00 | 0.00 | 0.00 | 58 | 1008.7 |
| 20260503183401 | 56 | 97 | 0.0 | 1.0 | 0.00 | 0.00 | 0.00 | 52 | 1008.8 |
| 20260503180358 | 58 | 160 | 0.0 | 1.0 | 0.00 | 0.00 | 0.00 | 46 | 1008.8 |
| 20260503173358 | 60 | 239 | 0.0 | 1.0 | 0.00 | 0.00 | 0.00 | 42 | 1008.6 |
| 20260503170401 | 58 | 145 | 0.0 | 2.0 | 0.00 | 0.00 | 0.00 | 41 | 1008.6 |
| 20260503150358 | 52 | 98 | 0.0 | 0.0 | 0.00 | 0.00 | 0.00 | 43 | 1008.4 |
| 20260503130401 | 50 | 88 | 0.0 | 0.0 | 0.00 | 0.00 | 0.00 | 46 | 1008.1 |
| 20260503110358 | 51 | 89 | 0.0 | 0.0 | 0.00 | 0.00 | 0.00 | 57 | 1008.9 |
| 20260503090358 | 50 | 100 | 0.0 | 1.0 | 0.00 | 0.00 | 0.00 | 73 | 1010.8 |
| 20260503080358 | 51 | 127 | 0.0 | 0.0 | 0.00 | 0.00 | 0.00 | 69 | 1012.4 |
| 20260503070358 | 53 | 103 | 0.0 | 0.0 | 0.00 | 0.00 | 0.00 | 60 | 1013.3 |
| 20260503053401 | 54 | 107 | 0.0 | 0.0 | 0.00 | 0.00 | 0.00 | 60 | 1014.3 |
| 20260503050401 | 55 | 82 | 0.0 | 0.0 | 0.00 | 0.00 | 0.00 | 58 | 1014.7 |